[[{"header":{"parameterUnit":"m.s-1","parameterCategory":1,"la1":30.2991,"la2":30.254,"lo1":-89.0895,"lo2":-89.0444,"dy":0.0017,"dx":0.0017,"nx":28,"ny":28,"refTime":"2025-11-11T09:00:00:Z","depth":0,"parameterNumber":2,"parameterNumberName":"U-component_of_WINDS"},"data":[0,0,0,0,0,0,0,0,0,0,0,0,0,0,0,0,0,0,0,0,0,0,0,0,0,0,0,0,0,0,0,0,0,0,0,0,0,0,0,0,0,0,0,0,0,0,0,0,0,0,0,0,0,0,0,0,0,0,3.5188,3.5189,0,3.5291,3.5292,3.5293,3.5226,3.5223,3.522,3.5217,3.5322,3.5328,3.5334,0,0,0,0,0,0,0,0,0,0,0,0,0,3.493,3.4935,3.5188,3.5189,3.5191,3.5291,3.5292,3.5294,3.5227,3.5223,3.5219,3.5215,3.5321,3.5327,3.5334,0,0,0,0,0,0,0,0,0,0,0,0,0,3.5039,3.4937,3.5188,3.5169,3.5169,3.5291,3.5292,3.5294,3.5227,3.5223,3.5218,3.5214,3.5318,3.5327,3.5335,3.5481,0,0,3.5361,3.5365,0,0,0,0,0,0,0,0,3.5033,3.5048,3.5171,3.5171,3.517,3.5241,3.524,3.5357,3.5229,3.5205,3.5217,3.5211,3.5299,3.5309,3.5339,3.5486,3.5491,3.5362,3.5367,3.5371,3.5373,0,0,0,0,0,0,0,3.5025,3.5043,3.5229,3.5172,3.5172,3.5155,3.5165,3.5262,3.5277,3.5207,3.5202,3.5215,3.5298,3.533,3.5341,3.5492,3.5362,3.5369,3.5375,3.5378,3.5758,3.5763,0,0,0,0,0,0,3.5019,3.5038,3.5225,3.5232,3.5088,3.5163,3.5175,3.5223,3.5276,3.5279,3.5219,3.5212,3.5318,3.5331,3.5344,3.5513,3.5371,3.5379,3.5384,3.5753,3.5759,3.5764,0,0,0,0,0,0,3.5014,3.5037,3.5221,3.5133,3.5156,3.5173,3.5227,3.5227,3.526,3.5285,3.5287,3.5249,3.5315,3.5332,3.5446,3.5516,3.5383,3.5391,3.5747,3.5755,3.5762,3.5855,0,0,0,0,0,0,3.5007,3.5035,3.5092,3.5135,3.5161,3.5323,3.5232,3.5233,3.5275,3.5266,3.5314,3.5318,3.5313,3.5434,3.5455,3.5525,3.5397,3.5741,3.5751,3.5759,3.5846,3.5865,3.5882,0,0,0,0,0,3.4998,3.5116,3.5095,3.5118,3.5232,3.5327,3.5341,3.5333,3.5281,3.5336,3.5352,3.5316,3.5506,3.5446,3.5469,3.5543,3.5736,3.5748,3.5759,3.5838,3.5861,3.5881,0,0,0,0,0,0,3.5081,3.5121,3.5099,3.5234,3.5278,3.5316,3.5386,3.5359,3.5419,3.5408,3.5395,3.5407,3.5525,3.5546,3.5479,3.5684,3.5613,3.5629,3.5665,3.5687,3.5705,3.5695,3.5404,0,0,0,0,0,3.5115,3.519,3.5221,3.5337,3.536,3.537,3.5411,3.54,3.5445,3.5463,3.5487,3.5531,3.56,3.5646,3.5711,3.585,3.5857,3.5912,3.593,3.5944,3.5957,3.6026,3.6049,3.5801,3.5801,3.5801,0,0,3.5187,3.5218,3.5266,3.5355,3.5387,3.5462,3.5385,3.547,3.5525,3.5476,3.5583,3.5603,3.5651,3.5776,3.5833,3.5798,3.6028,3.5959,3.597,3.5975,3.604,3.6063,3.6084,3.5809,3.5807,3.5806,0,0,3.5353,3.5387,3.5484,3.5517,3.5566,3.5571,3.5595,3.5637,3.5647,3.5755,3.5717,3.5783,3.5904,3.5937,3.597,3.6146,3.6113,3.6169,3.6259,3.6326,3.6346,3.6363,3.642,3.6441,3.6182,3.6182,3.6183,0,3.5435,3.5548,3.5538,3.5623,3.5661,3.562,3.5716,3.5749,3.5818,3.5844,3.5804,3.5951,3.5981,3.611,3.6153,3.6184,3.6206,3.6161,3.6344,3.6361,3.6377,3.6431,3.6453,3.6188,3.6188,3.6187,3.6186,0,3.5643,3.5721,3.5794,3.5858,3.5905,3.5997,3.5998,3.6047,3.6032,3.6041,3.6148,3.6183,3.6251,3.6282,3.6271,3.6409,3.6385,3.6346,3.6272,3.6406,3.6457,3.6478,3.6197,3.6195,3.6193,3.6191,0,0,3.5864,3.5919,3.5946,3.5972,3.6022,3.6082,3.617,3.6236,3.6275,3.6324,3.6394,3.6495,3.6457,3.6495,3.6486,3.6546,3.6675,3.6498,3.6498,3.6524,3.6824,3.6849,3.6874,3.6656,3.666,3.6663,3.6818,0,3.6028,3.618,3.6172,3.6314,3.6383,3.6343,3.6419,3.6457,3.6467,3.6526,3.6538,3.6607,3.6555,3.6576,3.6634,3.6647,3.6734,3.6637,3.6717,3.672,3.67,3.6901,3.693,3.7074,3.6838,3.6841,3.6844,0,3.6241,3.6293,3.6441,3.6476,3.6504,3.6573,3.6629,3.6689,3.6729,3.6732,3.6772,3.6753,3.6838,3.6766,3.6882,3.6816,3.6848,3.686,3.6865,3.6868,3.6786,3.6904,3.712,3.714,3.6876,3.6873,3.6871,0,3.6379,3.6488,3.6588,3.6613,3.6658,3.6706,3.6727,3.6763,3.6802,3.6852,3.6876,3.6937,3.6969,3.7016,3.7011,3.6961,3.7127,3.7056,3.7128,3.7128,3.7161,3.7158,3.738,3.7192,3.7191,3.7191,3.7191,0,3.656,3.6651,3.665,3.6712,3.6811,3.68,3.6898,3.6914,3.6946,3.7008,3.698,3.7039,3.7032,3.7091,3.7089,3.7181,3.7198,3.72,3.7197,3.7199,3.7198,3.7217,3.7205,3.7197,3.7196,3.7194,3.7193,0,3.673,3.6734,3.684,3.6873,3.6883,3.6954,3.6981,3.7038,3.7045,3.7124,3.7142,3.7153,3.722,3.7221,3.73,3.7298,3.7409,3.7398,3.7394,3.739,3.746,3.7451,3.7697,3.7726,3.7524,3.7526,3.7528,0,3.6843,3.6911,3.695,3.6989,3.7012,3.7076,3.7114,3.7107,3.7147,3.7197,3.7247,3.7311,3.7361,3.747,3.7484,3.7542,3.7529,3.7611,3.7537,3.7536,3.7523,3.7517,3.7521,3.7624,3.7626,3.7628,3.763,0,3.7041,3.7038,3.7094,3.715,3.7196,3.724,3.7281,3.7315,3.7311,3.7358,3.7425,3.7464,3.7542,3.7604,3.766,3.768,3.7653,3.7653,3.7672,3.7672,3.7664,3.7663,3.7427,3.7647,3.7645,3.7644,3.7643,3.7642,3.7181,3.7237,3.7272,3.7334,3.7364,3.7401,3.7454,3.7467,3.7523,3.7584,3.7577,3.7651,3.7686,3.7758,3.7782,3.7838,3.781,3.7838,3.7845,3.785,3.7855,3.766,3.785,3.7849,3.7849,3.7848,3.7848,0,3.7372,3.7391,3.7449,3.7505,3.7553,3.7524,3.7567,3.7608,3.7673,3.7709,3.7758,3.7833,3.7892,3.7911,3.7968,3.8009,3.7997,3.8023,3.8018,3.8021,3.788,3.7855,3.8031,3.8031,3.8031,3.8031,3.8031,3.8031,3.7476,3.7568,3.7569,3.7674,3.7693,3.7764,3.7789,3.7823,3.785,3.7935,3.7983,3.7995,3.8022,3.808,3.8133,3.8136,3.8156,3.8186,3.8184,3.8051,3.8032,3.8014,3.7991,3.8192,3.8192,3.832,3.8321,3.8322]},{"header":{"parameterUnit":"m.s-1","parameterCategory":1,"la1":30.2991,"la2":30.254,"lo1":-89.0895,"lo2":-89.0444,"dy":0.0017,"dx":0.0017,"nx":28,"ny":28,"refTime":"2025-11-11T09:00:00:Z","depth":0,"parameterNumber":3,"parameterNumberName":"V-component_of_WINDS"},"data":[0,0,0,0,0,0,0,0,0,0,0,0,0,0,0,0,0,0,0,0,0,0,0,0,0,0,0,0,0,0,0,0,0,0,0,0,0,0,0,0,0,0,0,0,0,0,0,0,0,0,0,0,0,0,0,0,0,0,1.7343,1.7342,0,1.7251,1.725,1.7249,1.7144,1.7143,1.7141,1.714,1.7048,1.7047,1.7046,0,0,0,0,0,0,0,0,0,0,0,0,0,1.7428,1.7427,1.7343,1.7342,1.7341,1.7252,1.725,1.7249,1.7145,1.7143,1.7141,1.7139,1.7048,1.7047,1.7046,0,0,0,0,0,0,0,0,0,0,0,0,0,1.737,1.7427,1.7343,1.7278,1.7271,1.7252,1.725,1.7249,1.7145,1.7143,1.714,1.7138,1.7048,1.7047,1.7045,1.7084,0,0,1.7041,1.704,0,0,0,0,0,0,0,0,1.7373,1.7367,1.7289,1.7282,1.7275,1.7207,1.7246,1.7193,1.7146,1.7193,1.714,1.7137,1.7103,1.7096,1.7085,1.7079,1.7075,1.7041,1.704,1.7039,1.7039,0,0,0,0,0,0,0,1.7377,1.737,1.7307,1.7288,1.7279,1.7253,1.7242,1.7236,1.7162,1.7189,1.7181,1.7171,1.7098,1.7086,1.7082,1.7074,1.7041,1.7039,1.7039,1.7038,1.7093,1.7096,0,0,0,0,0,0,1.7391,1.7374,1.731,1.7304,1.7319,1.7254,1.7241,1.7231,1.7162,1.7149,1.7173,1.7167,1.709,1.7083,1.7078,1.7116,1.7039,1.7038,1.7037,1.7091,1.7094,1.7096,0,0,0,0,0,0,1.7393,1.7386,1.7313,1.7337,1.7326,1.7255,1.7244,1.723,1.7218,1.715,1.7137,1.7174,1.7088,1.708,1.7082,1.7112,1.7037,1.7036,1.7088,1.7092,1.7095,1.7194,0,0,0,0,0,0,1.7396,1.7388,1.7402,1.7338,1.7325,1.732,1.7246,1.723,1.7216,1.7206,1.7148,1.7136,1.7085,1.7085,1.7081,1.7108,1.7035,1.7085,1.709,1.7094,1.7188,1.7201,1.7212,0,0,0,0,0,1.74,1.7434,1.7403,1.7396,1.734,1.7321,1.7314,1.7254,1.7219,1.7231,1.7188,1.7138,1.711,1.7086,1.7081,1.7108,1.7083,1.7089,1.7094,1.7183,1.7198,1.7212,0,0,0,0,0,0,1.7504,1.7425,1.7389,1.7404,1.737,1.7304,1.7318,1.7273,1.7249,1.7241,1.7169,1.7157,1.7167,1.7138,1.7114,1.714,1.7089,1.7093,1.7159,1.7173,1.7185,1.7191,1.7033,0,0,0,0,0,1.7529,1.7519,1.7451,1.747,1.7455,1.739,1.738,1.7337,1.7299,1.7284,1.7241,1.7207,1.7189,1.718,1.7161,1.7184,1.7169,1.72,1.7212,1.7222,1.7226,1.7234,1.7246,1.7114,1.7114,1.7114,0,0,1.7579,1.7535,1.7534,1.749,1.7459,1.7451,1.7379,1.7374,1.7367,1.7284,1.7282,1.7249,1.7206,1.7219,1.7222,1.7195,1.7259,1.7229,1.7237,1.7236,1.7241,1.7253,1.7265,1.7117,1.7117,1.7116,0,0,1.7667,1.7634,1.7645,1.7615,1.7568,1.7524,1.7527,1.7467,1.7442,1.7439,1.7376,1.7368,1.7341,1.7311,1.7294,1.737,1.7322,1.7366,1.7427,1.7436,1.7446,1.7455,1.748,1.749,1.7371,1.7371,1.7371,0,1.7736,1.7721,1.7657,1.7655,1.7637,1.7561,1.7571,1.7546,1.7496,1.7485,1.7455,1.7418,1.7384,1.7387,1.7406,1.7395,1.7395,1.7371,1.745,1.7458,1.7465,1.7488,1.7498,1.7376,1.7376,1.7375,1.7375,0,1.7807,1.7798,1.7813,1.7765,1.7749,1.7754,1.769,1.7682,1.764,1.76,1.7598,1.7554,1.7524,1.7522,1.7482,1.7519,1.7503,1.7463,1.7409,1.7484,1.7505,1.7513,1.7384,1.7382,1.738,1.7379,0,0,1.7957,1.7873,1.788,1.7856,1.7799,1.779,1.7791,1.7761,1.7754,1.7722,1.772,1.7699,1.766,1.764,1.7596,1.7604,1.7665,1.7562,1.756,1.7581,1.7701,1.773,1.7742,1.7634,1.7635,1.7636,1.7704,0,1.8033,1.8029,1.7971,1.7983,1.7973,1.79,1.7901,1.7866,1.7828,1.7814,1.7772,1.7757,1.7709,1.7695,1.77,1.7656,1.7687,1.7651,1.763,1.763,1.7641,1.7753,1.7784,1.785,1.7712,1.7713,1.7714,0,1.8121,1.8093,1.8104,1.8044,1.8038,1.8039,1.8006,1.7994,1.7952,1.7924,1.7901,1.7851,1.7847,1.7798,1.7792,1.7768,1.7756,1.7734,1.7735,1.7729,1.7675,1.7748,1.787,1.7879,1.7726,1.7725,1.7724,0,1.8226,1.8192,1.8193,1.8175,1.8107,1.8109,1.8081,1.8037,1.8022,1.7993,1.7982,1.7955,1.7939,1.7918,1.7861,1.7831,1.7861,1.7808,1.7836,1.7838,1.7844,1.7844,1.7964,1.7841,1.784,1.784,1.784,0,1.8316,1.8325,1.8239,1.824,1.8248,1.8181,1.8191,1.8156,1.8117,1.8109,1.8046,1.804,1.7967,1.7953,1.7909,1.7909,1.7904,1.788,1.7868,1.7884,1.7887,1.7874,1.7867,1.7843,1.7842,1.7842,1.7841,0,1.8434,1.8377,1.8373,1.8309,1.8293,1.8301,1.8245,1.8243,1.8202,1.8193,1.8187,1.8122,1.8102,1.8044,1.801,1.798,1.7992,1.7971,1.8006,1.7998,1.8029,1.8026,1.8142,1.8153,1.8026,1.8028,1.8029,0,1.8494,1.8499,1.8434,1.8424,1.8398,1.8383,1.8367,1.8302,1.8288,1.824,1.8244,1.8219,1.8195,1.8166,1.8116,1.8089,1.8065,1.8108,1.8061,1.8076,1.8063,1.8062,1.8062,1.8118,1.8119,1.8121,1.8122,0,1.8605,1.8576,1.8555,1.8524,1.8506,1.8479,1.8448,1.8443,1.837,1.8358,1.8336,1.8318,1.8282,1.8257,1.8222,1.8193,1.8145,1.8137,1.8142,1.8158,1.8177,1.8165,1.8032,1.8134,1.8133,1.8132,1.8132,1.8131,1.8694,1.8694,1.8648,1.8626,1.8596,1.8568,1.8562,1.852,1.85,1.8465,1.8429,1.8411,1.8368,1.8316,1.829,1.8275,1.8249,1.8257,1.8258,1.8261,1.8268,1.8181,1.8269,1.8268,1.8268,1.8267,1.8267,0,1.8799,1.8766,1.8747,1.8704,1.8687,1.8644,1.8607,1.8595,1.858,1.8544,1.8522,1.8496,1.8472,1.842,1.839,1.8388,1.8365,1.8383,1.8381,1.8374,1.8293,1.8291,1.8401,1.8401,1.8401,1.8401,1.8401,1.8401,1.8852,1.8849,1.8815,1.8797,1.8764,1.8745,1.8727,1.8701,1.8672,1.8646,1.8625,1.8591,1.8548,1.8515,1.849,1.8476,1.8467,1.8491,1.8469,1.8393,1.8381,1.8368,1.8366,1.849,1.849,1.8551,1.8551,1.8552]}]]